STARLINK-35364, 65840

Orbit data source: Space-Track

STARLINK-35364, 65840 is a payload satellite owned by SpaceX/Seattle (US) in LEO that was launched on Mon, 29 Sep 2025 UTC via an FALCON 9 launch vehicle from the Air Force Western Test Range (AFWTR). Payload-class satellites include a variety of spacecraft equipped with specific instruments for various scientific and technological missions. These include communications satellites like Starlink; space stations such as the ISS; scientific satellites like the Hubble; Earth observation satellites from companies like Planet Labs, Umbra, and HawkEye 360; GPS; miniature CubeSats for education and research; and military/defense satellites.

Loading next visibility...
Identifier
65840, 2025-221T
Orbit
LEO
Country
Flag of USUS
Related business
Manufacturer
SpaceX/Seattle
Mission
Operational Commercial Communications
Bus & Motor
STARLINK V2MO, Unknown motor
Mass
575 kg wet, ~530 kg dry
Launch date (UTC)
2025-09-29 (9 months ago)
Launch vehicle
FALCON 9
Launch site
Air Force Western Test Range (AFWTR)
Object type
Payload
Rocket body
Debris
Shape & HBR
Box + 2 Pan, 17.7 m
Radar Cross Section
36.964 m², Large (>1 m²)

Expand to show TLE details & history
Last TLE update: 1 day ago

TLE from 1 day ago
0 STARLINK-35364
1 65840U 25221T   26170.72122166  .00020941  00000-0  62913-3 0  9998
2 65840  53.1595 333.0907 0000990  60.2945 299.8156 15.34402552 40377
Epoch: 2026-06-19T17:18Z
TLE epoch observation values (Epoch: 2026-06-19T17:18:33.551Z)
Latitude
-0.00002°
Longitude
165.50475°
Altitude
463.26 km
Speed
7.636 km/s
True Right ascension
22h 12m 21s
True Declination
0° 00' 00"
Sunlit
Object was in full shadow at epoch
Visualization orbit readout
Latitude
Unknown
Longitude
Unknown
Altitude
Unknown
Speed
Unknown
Apparent Right ascension
Unknown
Apparent Declination
Unknown
Sunlit
N/A
Visualization observer readout
Local Sidereal Time
07:19:03
Azimuth
Unknown
Elevation
Unknown
Doppler factor
Unknown
Orbital elements
Apogee altitude
463.63 km
Perigee altitude
462.275 km
Semi-major axis
6,841.09 km
Eccentricity
0.0001
Inclination
53.1595°
RAAN
333.0907°
Arg. of periapsis
60.2945°
True anomaly
299.80576°
Mean anomaly
299.8156°
Eccentric anomaly
299.81068°
Mean motion
3.83579 °/min
Orbital period
93.85 mins
BSTAR
0.00062913
Loading maneuver chart data...
Computing Atmospheric mass density...
Loading historical data...
Loading historical data...
Loading historical data...
Loading historical data...
Loading historical data...
Loading historical data...
Loading historical data...

Documentation

Showing up to 5 results
|